This is the latest recevied weather packets stored in our database for station/object ZL1CTS-13. If no packets are shown the sender has not sent any weather packets the latest 10 day(s).
| Time | Temp. | Humidity | Pressure | Rain* | Wind** | Luminosity | Snow |
|---|---|---|---|---|---|---|---|
| 1788048004 | 18.33° C | 72% | 995.1 hPa | 0.25 mm | - | - | - |
| 1788047705 | 18.33° C | 74% | 995.1 hPa | 0.25 mm | - | - | - |
| 1788047404 | 17.78° C | 73% | 995.2 hPa | 0.25 mm | - | - | - |
| 1788047105 | 17.78° C | 75% | 995.2 hPa | 0.25 mm | - | - | - |
| 1788046803 | 17.78° C | 77% | 995 hPa | 0.25 mm | - | - | - |
| 1788046503 | 17.78° C | 77% | 995 hPa | 0.25 mm | - | - | - |
| 1788046204 | 17.22° C | 77% | 995.1 hPa | 0.25 mm | - | - | - |
| 1788045904 | 17.22° C | 78% | 995.2 hPa | 0.25 mm | - | - | - |
| 1788045604 | 16.67° C | 82% | 995.1 hPa | 0 mm | - | - | - |
| 1788045303 | 16.67° C | 85% | 995.2 hPa | 0 mm | - | - | - |
| 1788045003 | 16.67° C | 87% | 995.5 hPa | 0 mm | - | - | - |
| 1788044704 | 16.11° C | 89% | 995.4 hPa | 0 mm | - | - | - |
| 1788044404 | 15.56° C | 88% | 995.3 hPa | 0 mm | - | - | - |
| 1788044104 | 15.56° C | 87% | 995.4 hPa | 0 mm | - | - | - |
| 1788043804 | 15.56° C | 86% | 995.5 hPa | 0 mm | - | - | - |
| 1788043503 | 15.56° C | 85% | 995.5 hPa | 0 mm | - | - | - |
| 1788043204 | 15.56° C | 84% | 995.3 hPa | 0 mm | - | - | - |
| 1788042904 | 15.56° C | 83% | 995.4 hPa | 0 mm | - | - | - |
| 1788042604 | 16.11° C | 81% | 995.4 hPa | 0 mm | - | - | - |
| 1788042304 | 16.67° C | 80% | 995.4 hPa | 0 mm | - | - | - |
| 1788042004 | 16.67° C | 80% | 995.5 hPa | 0 mm | - | - | - |
| 1788041704 | 16.67° C | 80% | 995.5 hPa | 0 mm | - | - | - |
| 1788041404 | 16.67° C | 79% | 995.6 hPa | 0 mm | - | - | - |
| 1788041104 | 16.67° C | 79% | 995.5 hPa | 0 mm | - | - | - |
| 1788040804 | 17.22° C | 78% | 995.5 hPa | 0 mm | - | - | - |
* Rain latest hour (hover to see other rain measurements)
** Current wind speed in m/s (hover to see current wind gust speed)